YD2CLX-14 Weather Reports


time (UTC)temp
C
wind
direction
speed
KPH
gust
KPH
rain 1hr
cm
rain 24hr
cm
rain mn
cm
humidity
%
barometer
mb
20260505223558 15 174 3.2 3.2 0.00 0.00 0.00 91 807.0
20260505223101 15 174 3.2 3.2 0.00 0.00 0.00 90 807.0
20260505222557 15 169 3.2 3.2 0.00 0.00 0.00 89 807.0
20260505222058 15 169 3.2 3.2 0.00 0.00 0.00 90 807.0
20260505221558 15 169 3.2 3.2 0.00 0.00 0.00 90 806.9
20260505221101 15 169 3.2 3.2 0.00 0.00 0.00 90 806.9
20260505220557 15 169 3.2 3.2 0.00 0.00 0.00 92 806.9
20260505215557 15 169 3.2 3.2 0.00 0.00 0.00 90 806.8
20260505215100 15 169 3.2 3.2 0.00 0.00 0.00 91 806.8
20260505214559 15 169 3.2 3.2 0.00 0.00 0.00 91 806.8
20260505214101 15 169 3.2 3.2 0.00 0.00 0.00 91 806.8
20260505213559 15 169 3.2 3.2 0.00 0.00 0.00 92 806.8
20260505213107 16 169 3.2 3.2 0.00 0.00 0.00 91 806.7
20260505212559 16 190 3.2 3.2 0.00 0.00 0.00 91 806.7
20260505212100 15 190 3.2 3.2 0.00 0.00 0.00 91 806.7
20260505211601 15 190 3.2 3.2 0.00 0.00 0.00 91 806.7
20260505211059 15 190 3.2 3.2 0.00 0.00 0.00 90 806.8
20260505210602 15 190 3.2 3.2 0.00 0.00 0.00 89 806.8
20260505205559 15 190 3.2 3.2 0.00 0.00 0.00 90 806.8
20260505205101 15 190 3.2 3.2 0.00 0.00 0.00 90 806.8
20260505204607 15 190 3.2 3.2 0.00 0.00 0.00 90 806.8
20260505204104 15 190 3.2 3.2 0.00 0.00 0.00 88 806.8
20260505203602 16 213 3.2 1.6 0.00 0.00 0.00 91 806.9
20260505203101 15 213 3.2 1.6 0.00 0.00 0.00 90 806.9
20260505202601 15 213 3.2 1.6 0.00 0.00 0.00 89 806.9
20260505202108 15 213 3.2 1.6 0.00 0.00 0.00 90 806.8
20260505201601 16 213 3.2 1.6 0.00 0.00 0.00 91 806.8
20260505201103 16 213 3.2 1.6 0.00 0.00 0.00 92 806.8
20260505200603 15 213 3.2 1.6 0.00 0.00 0.00 91 806.8
20260505200110 16 213 3.2 1.6 0.00 0.00 0.00 89 806.8
20260505195603 15 213 3.2 1.6 0.00 0.00 0.00 90 806.9
20260505195103 15 213 3.2 1.6 0.00 0.00 0.00 90 806.9
20260505194600 16 213 3.2 1.6 0.00 0.00 0.00 90 806.9
20260505194101 15 213 3.2 1.6 0.00 0.00 0.00 90 806.9
20260505193603 16 213 3.2 1.6 0.00 0.00 0.00 89 807.0
20260505193111 16 213 3.2 1.6 0.00 0.00 0.00 89 807.0
20260505192600 16 215 1.6 1.6 0.00 0.00 0.00 91 806.9
20260505192105 16 215 1.6 1.6 0.00 0.00 0.00 89 807.0
20260505191601 16 215 1.6 1.6 0.00 0.00 0.00 90 807.0
20260505191101 16 215 1.6 1.6 0.00 0.00 0.00 88 807.1
20260505190602 16 215 1.6 1.6 0.00 0.00 0.00 87 807.1
20260505190104 16 215 1.6 1.6 0.00 0.00 0.00 86 807.1
20260505185559 16 215 1.6 1.6 0.00 0.00 0.00 88 807.2
20260505185102 16 215 1.6 1.6 0.00 0.00 0.00 88 807.2
20260505184601 16 215 1.6 1.6 0.00 0.00 0.00 89 807.2
20260505184104 16 215 1.6 1.6 0.00 0.00 0.00 89 807.3
20260505183602 16 215 1.6 1.6 0.00 0.00 0.00 90 807.4
20260505183102 16 215 1.6 1.6 0.00 0.00 0.00 90 807.5
20260505182559 16 345 0.0 1.6 0.00 0.00 0.00 91 807.6
20260505182101 16 345 0.0 1.6 0.00 0.00 0.00 90 807.6
20260505181607 16 345 0.0 1.6 0.00 0.00 0.00 89 807.6
20260505181106 16 345 0.0 1.6 0.00 0.00 0.00 90 807.5
20260505180603 16 345 0.0 1.6 0.00 0.00 0.00 89 807.5
20260505180103 16 345 0.0 1.6 0.00 0.00 0.00 91 807.6
20260505175559 16 345 0.0 1.6 0.00 0.00 0.00 90 807.5
20260505175103 16 345 0.0 1.6 0.00 0.00 0.00 89 807.6
20260505174606 16 345 0.0 1.6 0.00 0.00 0.00 90 807.7
20260505174102 16 345 0.0 1.6 0.00 0.00 0.00 88 807.7
20260505173559 16 329 0.0 3.2 0.00 0.00 0.00 90 807.8
20260505173104 16 329 0.0 3.2 0.00 0.00 0.00 90 807.8
20260505172602 16 217 0.0 3.2 0.00 0.00 0.00 91 807.9
20260505172104 16 217 0.0 3.2 0.00 0.00 0.00 91 808.0
20260505171603 16 217 0.0 3.2 0.00 0.00 0.00 90 808.0
20260505171101 16 217 0.0 3.2 0.00 0.00 0.00 90 808.0
20260505170602 16 217 0.0 3.2 0.00 0.00 0.00 90 808.1
20260505170107 16 217 0.0 3.2 0.00 0.00 0.00 90 808.2
20260505165601 16 217 0.0 3.2 0.00 0.00 0.00 90 808.2
20260505165100 16 217 0.0 3.2 0.00 0.00 0.00 90 808.2
20260505164607 17 217 0.0 3.2 0.00 0.00 0.00 90 808.3
20260505164103 17 217 0.0 3.2 0.00 0.00 0.00 90 808.3
20260505163600 16 213 1.6 3.2 0.00 0.00 0.00 89 808.3
20260505163102 16 217 0.0 3.2 0.00 0.00 0.00 90 808.4
20260505162601 17 213 1.6 3.2 0.00 0.00 0.00 91 808.5
20260505162100 17 213 1.6 3.2 0.00 0.00 0.00 91 808.4
20260505161601 17 213 1.6 3.2 0.00 0.00 0.00 91 808.4
20260505161104 17 213 1.6 3.2 0.00 0.00 0.00 91 808.5
20260505160601 17 213 1.6 3.2 0.00 0.00 0.00 90 808.5
20260505160118 17 213 1.6 3.2 0.00 0.00 0.00 89 808.5
20260505153104 17 207 1.6 3.2 0.00 0.00 0.00 90 808.5
20260505152602 17 207 1.6 3.2 0.00 0.00 0.00 89 808.5
20260505152103 17 207 1.6 3.2 0.00 0.00 0.00 89 808.4
20260505151605 17 207 1.6 3.2 0.00 0.00 0.00 89 808.4
20260505151102 17 92 32.2 80.5 0.00 0.00 0.00 89 808.5
20260505150603 17 92 32.2 80.5 0.00 0.00 0.00 88 808.4
20260505150112 17 92 32.2 80.5 0.00 0.00 0.00 89 808.3
20260505140600 17 92 32.2 80.5 0.00 0.00 0.00 91 808.3
20260505140108 17 92 32.2 80.5 0.00 0.00 0.00 90 808.4
20260505130104 17 92 32.2 80.5 0.00 0.00 0.00 88 808.2
20260505124604 17 92 32.2 80.5 0.00 0.00 0.00 90 808.1
20260505124101 17 92 32.2 80.5 0.00 0.00 0.00 90 807.9
20260505123558 17 92 32.2 80.5 0.00 0.00 0.00 91 808.0
20260505123106 17 92 32.2 80.5 0.00 0.00 0.00 91 808.1
20260505122600 17 92 32.2 80.5 0.00 0.00 0.00 91 808.1
20260505122102 17 92 32.2 80.5 0.00 0.00 0.00 89 808.2
20260505121601 17 92 32.2 80.5 0.00 0.00 0.00 88 808.1
20260505121100 18 92 32.2 80.5 0.00 0.00 0.00 88 808.1
20260505120559 18 92 32.2 80.5 0.00 0.00 0.00 88 807.9
20260505115557 18 92 32.2 80.5 0.00 0.00 0.00 90 807.7
20260505115101 18 92 32.2 80.5 0.00 0.00 0.00 88 807.7
20260505114601 17 92 32.2 80.5 0.00 0.00 0.00 88 807.7
20260505114059 17 92 32.2 80.5 0.00 0.00 0.00 89 807.5
20260505113557 17 77 3.2 4.8 0.00 0.00 0.00 90 807.3
20260505113107 17 77 3.2 4.8 0.00 0.00 0.00 90 807.3
20260505112600 17 77 3.2 4.8 0.00 0.00 0.00 91 807.3
20260505112059 18 77 3.2 4.8 0.00 0.00 0.00 90 807.4
20260505111559 18 77 3.2 4.8 0.00 0.00 0.00 88 807.4
20260505111059 18 77 3.2 4.8 0.00 0.00 0.00 88 807.4
20260505110558 18 77 3.2 4.8 0.00 0.00 0.00 89 807.2
20260505110107 18 77 3.2 4.8 0.00 0.00 0.00 89 807.1
20260505102058 18 77 1.6 3.2 0.00 0.00 0.00 90 806.6
20260505101558 18 77 1.6 3.2 0.00 0.00 0.00 90 806.8
20260505101059 18 92 32.2 80.5 0.00 0.00 0.00 90 806.9
20260505100557 18 92 32.2 80.5 0.00 0.00 0.00 90 806.9
20260505095557 18 92 32.2 80.5 0.00 0.00 0.00 91 806.7
20260505095056 18 92 32.2 80.5 0.00 0.00 0.00 90 806.6
20260505094557 18 92 32.2 80.5 0.00 0.00 0.00 90 806.7
20260505094057 19 92 32.2 80.5 0.00 0.00 0.00 88 806.7
20260505093557 19 92 32.2 80.5 0.00 0.00 0.00 91 806.7
20260505093058 19 92 32.2 80.5 0.00 0.00 0.00 90 806.6
20260505092557 19 92 32.2 80.5 0.00 0.00 0.00 91 806.6
20260505092057 18 92 32.2 80.5 0.00 0.00 0.00 90 806.5
20260505091557 19 92 32.2 80.5 0.00 0.00 0.00 89 806.3
20260505091057 19 92 32.2 80.5 0.00 0.00 0.00 88 806.3
20260505090556 19 92 32.2 80.5 0.00 0.00 0.00 88 806.3
20260505090059 20 92 32.2 80.5 0.00 0.00 0.00 89 806.4
20260505085556 20 92 32.2 80.5 0.00 0.00 0.00 88 806.2
20260505085056 20 92 32.2 80.5 0.00 0.00 0.00 88 806.2
20260505084556 20 92 32.2 80.5 0.00 0.00 0.00 89 806.2
20260505084056 20 92 32.2 80.5 0.00 0.00 0.00 88 806.2
20260505083557 20 92 32.2 80.5 0.00 0.00 0.00 89 806.1
20260505083101 20 66 1.6 3.2 0.10 0.00 0.00 88 806.1
20260505082601 20 53 1.6 3.2 0.00 0.00 0.00 89 806.1
20260505082101 20 53 1.6 3.2 0.00 0.00 0.00 88 806.1
20260505081601 20 53 1.6 3.2 0.00 0.00 0.00 87 806.2
20260505081101 20 53 1.6 3.2 0.00 0.00 0.00 89 806.2
20260505080601 20 53 1.6 3.2 0.00 0.00 0.00 87 806.3
20260505075601 20 53 1.6 3.2 0.00 0.00 0.00 87 806.1
20260505075101 21 53 1.6 3.2 0.00 0.00 0.00 87 806.2
20260505074601 21 53 1.6 3.2 0.00 0.00 0.00 86 806.2
20260505074101 21 53 1.6 3.2 0.00 0.00 0.00 85 806.2
20260505073601 21 53 1.6 3.2 0.00 0.00 0.00 85 806.2
20260505073101 22 53 1.6 3.2 0.13 0.00 0.00 81 806.1
20260505072601 23 28 1.6 4.8 0.00 0.00 0.00 81 806.1
20260505072102 24 28 1.6 4.8 0.00 0.00 0.00 75 806.1
20260505071601 24 28 1.6 4.8 0.00 0.00 0.00 77 806.2
20260505071101 25 28 1.6 4.8 0.00 0.00 0.00 77 806.2
20260505070601 25 28 1.6 4.8 0.00 0.00 0.00 75 806.3
20260505070104 23 28 1.6 4.8 0.00 0.00 0.00 76 806.3
20260505065601 22 28 1.6 4.8 0.00 0.00 0.00 84 806.4
20260505065101 22 28 1.6 4.8 0.00 0.00 0.00 82 806.4
20260505064601 23 28 1.6 4.8 0.00 0.00 0.00 81 806.5
20260505064101 23 28 1.6 4.8 0.00 0.00 0.00 80 806.5
20260505063601 25 28 1.6 4.8 0.00 0.00 0.00 80 806.6
20260505063103 25 28 1.6 4.8 0.15 0.00 0.00 78 806.6
20260505062601 23 25 3.2 4.8 0.00 0.00 0.00 83 806.7
20260505062102 23 25 3.2 4.8 0.00 0.00 0.00 76 806.8
20260505061602 23 25 3.2 4.8 0.18 0.00 0.00 79 806.9
20260505061102 23 25 3.2 4.8 0.18 0.00 0.00 81 807.0
20260505060601 22 25 3.2 4.8 0.00 0.00 0.00 80 807.0
20260505060106 23 25 3.2 4.8 0.00 0.00 0.00 82 807.1
20260505055601 24 25 3.2 4.8 0.00 0.00 0.00 77 807.1
20260505055102 25 25 3.2 4.8 0.18 0.00 0.00 77 807.1
20260505054602 26 28 3.2 4.8 0.00 0.00 0.00 71 807.2
20260505054103 27 28 3.2 4.8 0.00 0.00 0.00 74 807.2
20260505053602 27 28 3.2 4.8 0.15 0.00 0.00 71 807.3
20260505053104 26 28 3.2 4.8 0.15 0.00 0.00 69 807.3
20260505052601 26 12 1.6 3.2 0.00 0.00 0.00 74 807.3
20260505052102 26 12 1.6 3.2 0.00 0.00 0.00 70 807.4
20260505051603 26 12 1.6 3.2 0.15 0.00 0.00 75 807.4
20260505051105 25 12 1.6 3.2 0.15 0.00 0.00 73 807.4
20260505050602 25 12 1.6 3.2 0.00 0.00 0.00 76 807.5
20260505050108 25 12 1.6 3.2 0.00 0.00 0.00 79 807.6
20260505041604 21 3 3.2 4.8 0.00 0.00 0.00 84 808.1
20260505041104 21 3 3.2 4.8 0.10 0.00 0.00 88 808.2
20260505040602 20 3 3.2 4.8 0.00 0.00 0.00 89 808.2
20260505040110 20 3 3.2 4.8 0.00 0.00 0.00 88 808.3
20260505035604 20 3 3.2 4.8 0.00 0.00 0.00 90 808.3
20260505035103 20 3 3.2 4.8 0.00 0.00 0.00 88 808.3
20260505034605 20 3 3.2 4.8 0.00 0.00 0.00 89 808.4
20260505034107 20 3 3.2 4.8 0.10 0.00 0.00 88 808.4
20260505033603 20 3 3.2 4.8 0.10 0.00 0.00 87 808.4
20260505033111 20 3 3.2 4.8 0.10 0.00 0.00 87 808.4
20260505032604 20 16 3.2 4.8 0.00 0.00 0.00 86 808.4
20260505032108 20 16 3.2 4.8 0.00 0.00 0.00 86 808.5
20260505031605 20 16 3.2 4.8 0.05 0.00 0.00 85 808.5
20260505031107 20 16 3.2 4.8 0.05 0.00 0.00 86 808.5
20260505030604 21 16 3.2 4.8 0.00 0.00 0.00 84 808.5
20260505030114 21 16 3.2 4.8 0.00 0.00 0.00 85 808.5
20260505025604 21 16 3.2 4.8 0.05 0.00 0.00 86 808.4
20260505025104 21 16 3.2 4.8 0.05 0.00 0.00 84 808.5
20260505024604 21 16 3.2 4.8 0.00 0.00 0.00 89 808.5
20260505024106 21 16 3.2 4.8 0.00 0.00 0.00 85 808.5
20260505023606 22 16 3.2 4.8 0.00 0.00 0.00 85 808.5
20260505023111 22 23 3.2 4.8 0.00 0.00 0.00 78 808.5
20260505022605 23 23 3.2 4.8 0.00 0.00 0.00 80 808.5
20260505022106 24 23 3.2 4.8 0.00 0.00 0.00 75 808.5
20260505021606 26 23 3.2 4.8 0.00 0.00 0.00 77 808.4
20260505021107 27 23 3.2 4.8 0.00 0.00 0.00 69 808.4
20260505020606 27 23 3.2 4.8 0.00 0.00 0.00 74 808.4
20260505020122 27 23 3.2 4.8 0.00 0.00 0.00 72 808.4
20260505015606 27 23 3.2 4.8 0.00 0.00 0.00 73 808.4
20260505015109 26 23 3.2 4.8 0.00 0.00 0.00 72 808.4
20260505014609 25 23 3.2 4.8 0.00 0.00 0.00 76 808.5
20260505014110 26 23 3.2 4.8 0.00 0.00 0.00 71 808.4
20260505013605 26 23 3.2 4.8 0.00 0.00 0.00 71 808.4
20260505013117 26 23 3.2 4.8 0.00 0.00 0.00 73 808.3
20260505012607 25 25 3.2 4.8 0.00 0.00 0.00 75 808.3
20260505012110 25 25 3.2 4.8 0.00 0.00 0.00 77 808.2
20260505011606 25 25 3.2 4.8 0.00 0.00 0.00 72 808.2
20260505011106 25 25 3.2 4.8 0.00 0.00 0.00 74 808.2
20260505010607 23 25 3.2 4.8 0.00 0.00 0.00 77 808.1
20260505010118 23 25 3.2 4.8 0.00 0.00 0.00 78 808.1
20260505005604 23 25 3.2 4.8 0.00 0.00 0.00 75 808.0
20260505005106 23 25 3.2 4.8 0.00 0.00 0.00 79 808.0
20260505004608 23 25 3.2 4.8 0.00 0.00 0.00 79 808.0
20260505004106 22 25 3.2 4.8 0.00 0.00 0.00 75 807.9
20260505003604 22 25 3.2 4.8 0.00 0.00 0.00 78 807.9
20260505003117 21 25 3.2 4.8 0.00 0.00 0.00 78 807.8
20260505002604 21 53 1.6 3.2 0.00 0.00 0.00 83 807.7
20260505002109 20 53 1.6 3.2 0.00 0.00 0.00 82 807.7
20260505001606 19 53 1.6 3.2 0.00 0.00 0.00 81 807.7
20260505001105 19 53 1.6 3.2 0.00 0.00 0.00 81 807.6
20260505000606 19 53 1.6 3.2 0.00 0.00 0.00 84 807.5
20260505000116 18 53 1.6 3.2 0.00 0.00 0.00 84 807.5
20260504235604 18 44 1.6 3.2 0.00 0.00 0.00 87 807.5
20260504235109 17 44 1.6 3.2 0.00 0.00 0.00 89 807.5
20260504234607 17 44 1.6 3.2 0.00 0.00 0.00 91 807.5
20260504234110 16 44 1.6 3.2 0.00 0.00 0.00 91 807.4
20260504233604 16 46 1.6 3.2 0.00 0.00 0.00 91 807.3
20260504233115 16 46 1.6 3.2 0.00 0.00 0.00 92 807.4
20260504232603 16 46 1.6 3.2 0.00 0.00 0.00 91 807.4
20260504232105 16 46 1.6 3.2 0.00 0.00 0.00 92 807.3
20260504231609 16 46 1.6 3.2 0.00 0.00 0.00 93 807.2
20260504231108 16 46 1.6 3.2 0.00 0.00 0.00 92 807.2
20260504230603 16 46 1.6 3.2 0.00 0.00 0.00 92 807.2
20260504230123 16 46 1.6 3.2 0.00 0.00 0.00 91 807.1
20260504225603 16 46 1.6 3.2 0.00 0.00 0.00 92 807.1
20260504225107 15 46 1.6 3.2 0.00 0.00 0.00 92 807.0
20260504224605 15 46 1.6 3.2 0.00 0.00 0.00 91 807.0
20260504224109 15 46 1.6 3.2 0.00 0.00 0.00 91 806.9